Home   Weather   Rishon LeZion   Past weeks

Flag for Israel Past Weather in Rishon LeZion, Israel — Yesterday and Last 2 Weeks

Now
64 °F

Clear.


Feels Like: 64 °F
Forecast: 56 / 79 °F
Wind: 2 mph from North

Location: Ben Gurion International Airport

Current Time: Apr 28, 2017 at 10:55:26 pm

Latest Report: Apr 28, 2017 at 10:20 pm


Visibility: 10 mi

Pressure: 29.95 "Hg

Humidity: 83%

Dew Point: 59 °F

Location of Rishon LeZionLocation

Past Weather in Rishon LeZion — Graph

°F

Rishon LeZion Temperature Yesterday

Maximum temperature yesterday: 75 °F (at 10:50 am)
Minimum temperature yesterday: 63 °F (at 5:50 am)
Average temperature yesterday: 69 °F

High & Low Weather Summary for the Past Weeks

 TemperatureHumidityPressure
High102 °F (Apr 22, 12:20 pm)88% (Apr 14, 3:20 am)30.12 "Hg (Apr 14, 3:20 am)
Low54 °F (Apr 17, 4:50 am)8% (Apr 22, 11:20 am)29.65 "Hg (Apr 22, 3:50 pm)
Average68 °F58%29.99 "Hg
* Reported Apr 13 8:20 pm — Apr 28 8:50 pm, Rishon LeZion, Weather by CustomWeather, © 2017

Note: Actual official high and low records may vary slightly from our data, if they occured in-between our weather recording intervals... More about our weather records

Advertising

Rishon LeZion Weather History for the Previous 24 Hours

Scroll right to see more
 ConditionsComfort  
Time TempWeatherWind HumidityBarometerVisibility
8:50 pm
Fri, Apr 28
66 °FClear.3 mph78%29.95 "Hg10 mi
8:20 pm66 °FClear.6 mph78%29.95 "Hg10 mi
7:50 pm68 °FClear.7 mph69%29.95 "Hg10 mi
7:20 pm68 °FPassing clouds.7 mph69%29.95 "HgN/A
6:50 pm70 °FPassing clouds.7 mph64%29.95 "HgN/A
6:20 pm72 °FPassing clouds.7 mph61%29.92 "HgN/A
5:50 pm72 °FSunny.8 mph61%29.92 "Hg10 mi
5:20 pm73 °FSunny.9 mph57%29.92 "Hg10 mi
4:50 pm73 °FSunny.10 mph50%29.92 "Hg10 mi
4:20 pm75 °FSunny.13 mph44%29.92 "Hg10 mi
3:50 pm75 °FSunny.13 mph39%29.92 "Hg10 mi
3:20 pm77 °FSunny.12 mph34%29.92 "Hg10 mi
2:50 pm77 °FPassing clouds.9 mph34%29.95 "HgN/A
2:20 pm77 °FSunny.10 mph30%29.95 "Hg10 mi
1:50 pm75 °FPassing clouds.10 mph39%29.95 "HgN/A
1:20 pm75 °FPassing clouds.10 mph41%29.98 "HgN/A
12:50 pm77 °FPassing clouds.9 mph42%29.95 "HgN/A
12:20 pm75 °FPassing clouds.9 mph54%29.98 "HgN/A
11:50 am75 °FPassing clouds.8 mph54%29.98 "HgN/A
11:20 am73 °FSunny.7 mph57%29.98 "Hg10 mi
10:50 am73 °FSunny.5 mph53%29.98 "Hg10 mi
10:20 am73 °FPassing clouds.5 mph47%29.98 "HgN/A
9:50 am72 °FPassing clouds.6 mph44%30.01 "HgN/A
9:20 am70 °FSunny.3 mph57%29.98 "Hg10 mi
8:50 am68 °FSunny.5 mph69%29.98 "Hg10 mi
8:20 am66 °FSunny.2 mph73%29.98 "Hg10 mi
7:50 am64 °FPassing clouds.1 mph73%29.98 "HgN/A
7:20 am63 °FPassing clouds.1 mph77%29.98 "HgN/A
6:50 am57 °FSunny.3 mph88%29.98 "Hg10 mi
6:20 am59 °FSunny.2 mph88%29.95 "Hg10 mi
5:50 am61 °FClear.1 mph83%29.95 "Hg10 mi
5:20 am59 °FClear.1 mph88%29.95 "Hg10 mi
4:50 am63 °FClear.5 mph83%29.95 "Hg10 mi
4:20 am63 °FClear.3 mph77%29.95 "Hg10 mi
3:50 am63 °FClear.6 mph83%29.95 "Hg10 mi
3:20 am63 °FClear.8 mph77%29.95 "Hg10 mi
2:50 am64 °FClear.8 mph73%29.95 "Hg10 mi
2:20 am64 °FClear.6 mph73%29.98 "Hg10 mi
1:50 am64 °FClear.5 mph73%29.98 "Hg10 mi
1:20 am64 °FClear.6 mph73%29.98 "Hg10 mi
11:20 pm
Thu, Apr 27
64 °FClear.3 mph73%29.98 "Hg10 mi
10:50 pm64 °FClear.3 mph78%29.98 "Hg10 mi
Weather by CustomWeather, © 2017

See weather overviewHow to use our weather pages